Weather History for Kinloss, United Kingdom

Change the Weather History Date:

Monday, February 6, 2012

  Actual Average Record
Temperature  
Mean Temperature 34 °F -  
Max Temperature 44 °F 45 °F 55 °F (1997)
Min Temperature 23 °F 33 °F 23 °F (2012)
Degree Days  
Heating Degree Days 31    
Moisture  
Dew Point 33 °F    
Average Humidity 90    
Maximum Humidity 100    
Minimum Humidity 80    
Precipitation  
Precipitation 0.01 in 0.05 in - ()
Sea Level Pressure  
Sea Level Pressure 30.52 in    
Wind  
Wind Speed 4 mph ()    
Max Wind Speed 8 mph    
Max Gust Speed -    
Visibility 7.8 miles    
Events Fog , Rain    
Averages and records for this station are not official NWS values.
T = Trace of Precipitation, MM = Missing Value Source: Averaged Metar Reports

Daily Weather History Graph

Daily Weather History Graph

Search for Another Location

Airport:

Trip Planner

Search our weather history database for the weather conditions in past years. The results will help you decide how hot, cold, wet, or windy it might be!

Date:

Astronomy

Feb. 06, 2012 Rise Set
Actual Time 8:06 AM GMT 4:50 PM GMT
Civil Twilight 7:24 AM GMT 5:33 PM GMT
Nautical Twilight 6:37 AM GMT 6:19 PM GMT
Astronomical Twilight 5:52 AM GMT 7:04 PM GMT
Moon 3:31 PM GMT (2/6) 6:59 AM GMT (2/6)
Length of Visible Light 10h 08m
Length of Day
8h 43m
Waxing Gibbous, 98% of the Moon is Illuminated
Feb 6
Waxing Gibbous
Feb 7
Full
Feb 14
Last Quarter
Feb 21
New
Mar 1
First Quarter

Hourly Weather History & Observations

Time (GMT) Temp. Windchill Dew Point Humidity Pressure Visibility Wind Dir Wind Speed Gust Speed Precip Events Conditions
12:50 AM 37.4 °F 31.4 °F 33.8 °F 87% 30.36 in 6.2 mi SW 8.1 mph - N/A   Unknown
1:50 AM 35.6 °F 29.9 °F 33.8 °F 93% 30.39 in 6.2 mi SW 6.9 mph - N/A   Unknown
2:50 AM 36 °F - 34 °F 87% 30.41 in 19 mi SW 5.8 mph - -   Mostly Cloudy
2:50 AM 35.6 °F 30.7 °F 33.8 °F 93% 30.39 in 6.2 mi SW 5.8 mph - N/A   Mostly Cloudy
3:50 AM 37.4 °F 32.1 °F 33.8 °F 87% 30.42 in 6.2 mi WSW 6.9 mph - N/A   Overcast
4:50 AM 37.4 °F 33.8 °F 35.6 °F 93% 30.42 in 6.2 mi SSW 4.6 mph - N/A   Overcast
5:50 AM 38 °F - 35 °F 86% 30.45 in 19 mi SW 6.9 mph - - Rain Light Rain Showers
5:50 AM 37.4 °F 32.1 °F 35.6 °F 93% 30.45 in 6.2 mi SW 6.9 mph - N/A Rain Light Rain Showers
6:50 AM 37.4 °F 32.8 °F 35.6 °F 93% 30.45 in 6.2 mi SW 5.8 mph - N/A   Mostly Cloudy
7:50 AM 35.6 °F 30.7 °F 33.8 °F 93% 30.48 in 6.2 mi WSW 5.8 mph - N/A   Mostly Cloudy
8:50 AM 34 °F - 32 °F 89% 30.51 in 19 mi SW 3.5 mph - -   Scattered Clouds
8:50 AM 33.8 °F 30.8 °F 32.0 °F 93% 30.51 in 6.2 mi SW 3.5 mph - N/A   Scattered Clouds
9:50 AM 37.4 °F 34.9 °F 35.6 °F 93% 30.51 in 6.2 mi SW 3.5 mph - N/A   Scattered Clouds
10:50 AM 39.2 °F 35.9 °F 37.4 °F 93% 30.54 in 6.2 mi WSW 4.6 mph - N/A   Scattered Clouds
11:13 AM 41.0 °F 38.0 °F 37.4 °F 87% 30.54 in 6.2 mi WSW 4.6 mph - N/A   Scattered Clouds
11:50 AM 42 °F - 38 °F 80% 30.55 in 28 mi WSW 4.6 mph - -   Scattered Clouds
11:50 AM 42.8 °F 40.1 °F 37.4 °F 81% 30.54 in 6.2 mi WSW 4.6 mph - N/A   Scattered Clouds
12:50 PM 44.6 °F - 39.2 °F 81% 30.54 in 6.2 mi NE 1.2 mph - N/A   Partly Cloudy
1:50 PM 42.8 °F 41.1 °F 37.4 °F 81% 30.54 in 6.2 mi North 3.5 mph - N/A   Partly Cloudy
2:50 PM 42 °F - 38 °F 81% 30.56 in 19 mi NNE 3.5 mph - -   Scattered Clouds
2:50 PM 42.8 °F 41.1 °F 37.4 °F 81% 30.54 in 6.2 mi NNE 3.5 mph - N/A   Partly Cloudy
3:50 PM 41.0 °F - 39.2 °F 93% 30.54 in 6.2 mi NE 2.3 mph - N/A   Scattered Clouds
4:50 PM 35.6 °F 32.8 °F 33.8 °F 93% 30.57 in 6.2 mi ENE 3.5 mph - N/A   Scattered Clouds
5:50 PM 33 °F - 31 °F 88% 30.59 in 14 mi ESE 3.5 mph - -  
5:50 PM 32.0 °F 28.7 °F 30.2 °F 93% 30.57 in 6.2 mi ESE 3.5 mph - N/A   Scattered Clouds
6:50 PM 30.2 °F 25.4 °F 28.4 °F 93% 30.60 in 6.2 mi ESE 4.6 mph - N/A   Unknown
7:50 PM 30.2 °F - 28.4 °F 93% 30.60 in 6.2 mi South 1.2 mph - N/A   Partly Cloudy
8:50 PM 28 °F - 27 °F 95% 30.62 in 7 mi ESE 2.3 mph - -  
8:50 PM 28.4 °F - 28.4 °F 100% 30.60 in 6.2 mi ESE 2.3 mph - N/A Fog Shallow Fog
9:50 PM 24.8 °F - 23.0 °F 93% 30.60 in 0.2 mi WNW 1.2 mph - N/A Fog Fog
10:50 PM 26.6 °F - 24.8 °F 93% 30.63 in 6.2 mi South 2.3 mph - N/A   Unknown
11:50 PM 24 °F - 22 °F 88% 30.63 in 2 mi ESE 2.3 mph - - Fog Fog
11:50 PM 23.0 °F - 21.2 °F 93% 30.63 in - ESE 2.3 mph - N/A   Mostly Cloudy